This is the latest recevied weather packets stored in our database for station/object AJ5AG. If no packets are shown the sender has not sent any weather packets the latest 10 day(s).
| Time | Temp. | Humidity | Pressure | Rain* | Wind** | Luminosity | Snow |
|---|---|---|---|---|---|---|---|
| 1777857645 | 20° C | 60% | 1019.7 hPa | 0 mm | - | 0 W/m² | - |
| 1777857341 | 20° C | 59% | 1019.7 hPa | 0 mm | - | 0 W/m² | - |
| 1777857037 | 20.56° C | 57% | 1019.7 hPa | 0 mm | - | 0 W/m² | - |
| 1777856733 | 20.56° C | 56% | 1019.8 hPa | 0 mm | - | 1 W/m² | - |
| 1777856429 | 21.11° C | 55% | 1019.9 hPa | 0 mm | - | 2 W/m² | - |
| 1777856126 | 21.11° C | 56% | 1019.8 hPa | 0 mm | - | 3 W/m² | - |
| 1777855824 | 21.67° C | 56% | 1019.8 hPa | 0 mm | - | 3 W/m² | - |
| 1777855521 | 21.67° C | 58% | 1019.7 hPa | 0 mm | - | 4 W/m² | - |
| 1777855218 | 21.67° C | 54% | 1019.9 hPa | 0 mm | - | 7 W/m² | - |
| 1777854914 | 21.67° C | 53% | 1019.7 hPa | 0 mm | - | 11 W/m² | - |
| 1777854611 | 22.22° C | 52% | 1019.9 hPa | 0 mm | - | 13 W/m² | - |
| 1777854308 | 22.22° C | 51% | 1020 hPa | 0 mm | - | 13 W/m² | - |
| 1777854005 | 22.78° C | 52% | 1019.9 hPa | 0 mm | - | 17 W/m² | - |
| 1777853703 | 22.78° C | 48% | 1020 hPa | 0 mm | - | 12 W/m² | - |
| 1777853399 | 23.33° C | 48% | 1020 hPa | 0 mm | - | 13 W/m² | - |
| 1777853097 | 23.33° C | 47% | 1020.1 hPa | 0 mm | - | 16 W/m² | - |
| 1777852794 | 23.89° C | 46% | 1020.1 hPa | 0 mm | - | 23 W/m² | - |
| 1777852492 | 23.89° C | 45% | 1020.2 hPa | 0 mm | - | 21 W/m² | - |
| 1777852188 | 23.89° C | 45% | 1020.2 hPa | 0 mm | - | 22 W/m² | - |
| 1777851886 | 23.89° C | 45% | 1020.4 hPa | 0 mm | - | 25 W/m² | - |
| 1777851584 | 23.89° C | 45% | 1020.2 hPa | 0 mm | - | 32 W/m² | - |
| 1777851280 | 23.89° C | 46% | 1020.1 hPa | 0 mm | - | 32 W/m² | - |
| 1777850976 | 24.44° C | 47% | 1020 hPa | 0 mm | - | 35 W/m² | - |
| 1777850673 | 24.44° C | 45% | 1020.2 hPa | 0 mm | - | 39 W/m² | - |
| 1777850372 | 24.44° C | 45% | 1020.1 hPa | 0 mm | - | 40 W/m² | - |
* Rain latest hour (hover to see other rain measurements)
** Current wind speed in m/s (hover to see current wind gust speed)